Location: Cactus School
(34.5700°N, 118.0931°W)
Time: 03:29:28
(UTC-07:00)

Courier 1B - Pass Details

Date: 28 April 2024
Orbit: 962 x 1208 km, 28.3° (Epoch: 23 May)

Event Time Altitude Azimuth Distance (km) Brightness Sun altitude
Rises 20:30:02 0° 203° (SSW) 4,018 10.7 -11.2°
Reaches altitude 10° 20:34:21 10° 180° (S) 3,095 9.9 -12.0°
Maximum altitude 20:38:17 15° 149° (SSE) 2,772 9.4 -12.7°
Enters shadow 20:39:34 14° 138° (SE) 2,816 9.3 -13.0°
